Location: Newark
(23.5328°S, 46.7919°W)
Time: 00:11:55
(UTC+00:00)

Envisat - Pass Details

Date: 13 March 2021
Orbit: 764 x 766 km, 98.1° (Epoch: 22 April)

Event Time Altitude Azimuth Distance (km) Brightness Sun altitude
Rises 07:26:47 0° 35° (NE) 3,215 6.5 -23.8°
Reaches altitude 10° 07:29:18 10° 45° (NE) 2,296 5.8 -23.2°
Maximum altitude 07:33:44 32° 107° (ESE) 1,310 4.8 -22.2°
Drops below altitude 10° 07:38:13 10° 168° (SSE) 2,319 5.8 -21.2°
Sets 07:40:44 0° 178° (S) 3,252 6.4 -20.6°
